Starlink 6277

operational
NORAD ID: 56399 Int'l Des: 2023-061 Owner: SPXS Country: US Constellation: starlink
LEOCIRCULAR

About Starlink 6277

Description loading...

Live Position

Loading 3D Globe...

Upcoming Passes

Altitude History

Altitude vs Time

uPlot chart will show altitude changes over time

Two-Line Element Set

1 56399U 23061AB 25306.27263443 -.00000092 00000-0 82502-5 0 9995
2 56399 43.0014 157.1786 0001209 273.2211 86.8493 15.02532019137738
Epoch: Nov 2, 2025 • Age: 41 hours

Current Status

Altitude 559.6 km
Velocity 7.59 km/s
Sub-Earth Point 24.53°N, 90.5°W
Launch Date May 4, 2023
Age 2.5 years
Type internet

Technical Details

Classification Payload
Mass 305.00 kg
Dry Mass 290.00 kg
Total Mass 305.00 kg
Length 0.20 m
Diameter 2.80 m
Span 9.00 m
Shape Box + pan
Manufacturer SPXS
Bus Type Starlink
Phase Status In Orbit
Owner/State SPXS/US

Large Constellations

Loading constellations...